Location: Corte Bragagnani
(45.3000°N, 11.1000°E)
Time: 06:02:12
(UTC+00:00)

Cosmos 1190 Rocket - Pass Details

Date: 09 April 2020
Orbit: 757 x 779 km, 74.1° (Epoch: 29 May)

Event Time Altitude Azimuth Distance (km) Brightness Sun altitude
Rises 18:36:45 0° 186° (S) 3,246 7.1 -8.0°
Reaches altitude 10° 18:39:09 10° 182° (S) 2,322 6.3 -8.4°
Maximum altitude 18:44:18 55° 106° (ESE) 927 4.1 -9.2°
Drops below altitude 10° 18:49:27 10° 29° (NNE) 2,327 6.4 -10.1°
Sets 18:51:52 0° 26° (NNE) 3,255 7.2 -10.5°
